Tracking 20093 objects as of 14-Dec-2019
HD Live streaming from Space Station
objects crossing your sky now

FENGYUN 1C DEB

Track FENGYUN 1C DEB now!
10-day predictions


NORAD ID: 30400
Int'l Code: 1999-025ADP
Perigee: 735.2 km
Apogee: 1,144.9 km
Inclination: 99.2 °
Period: 103.7 minutes
Semi major axis: 7311 km
RCS: 0.0229 m2 (small)
Launch date: May 10, 1999
Source: People's Republic of China (PRC)
Launch site: Taiyaun Space Center, China (TSC)

Note: This is SATELLITE DEBRIS
aabbcc
Your satellite tracking list
Your tracking list is empty




NASA's NSSDC Master Catalog

Two Line Element Set (TLE):
1 30400U 99025ADP 19348.03671845  .00000285  00000-0  19891-3 0  9997
2 30400  99.1585 258.4815 0280144 198.1147 173.6950 13.88777999649917
Source of the keplerian elements: AFSPC